星链-31656 (STARLINK-31656)

导读 | 星芒AI

STARLINK-31656 是 SpaceX Starlink 卫星互联网项目中的一颗低轨通信卫星。该卫星属于 Starlink 群体部署的一部分,旨在为全球用户提供高速、低延迟的互联网服务。它运行在约 550 公里的近地轨道上,采用先进的推进系统和激光通信技术,以提高网络效率和卫星自主性。STARLINK-31656 的发射和运行有助于扩展 Starlink 的覆盖范围,特别是在偏远和网络基础设施薄弱的地区。

基本信息
目录编号:
60286
目录名称:
STARLINK-31656
国际标识:
2024-132J
轨道中心:
EARTH
卫星名称:
星链-31656 (STARLINK-31656)
卫星全名:
星链-31656 (STARLINK-31656)
卫星状态:
在轨 (已飞行510 天)
发射日期:
2024-07-28 UTC
国别 :
美国 (US)
星等 :
--
轨道信息
数据来源 国际轨道数据
星历时间: 2025-12-19T22:44:30+0800
9小时前
查看轨道信息
半长轴: 6853.392km
偏心率: 0.0001308
轨道倾角: 53.162°
近地点辐角 74.294°
升交点赤经 64.156°
平近点角 285.820°
近地点: 474.358km
远地点: 476.152km
周期: 94.106分钟
每日圈数: 15.301867
详细信息
卫星平台:
Starlink v2.0 mini
运营商:
太空探索技术公司
运营商所在国:
美国
制造商(研发单位):
太空探索技术公司
制造商所在国:
美国
使用方式:
暂无
卫星简介
星链(Starlink)计划是由太空探索技术公司(SpaceX)提出的一个巨型低轨卫星互联网星座项目,计划在2019年至2024年间在太空搭建由约1.2万颗卫星组成的“星链”网络,其中1584颗将部署在地球上空550千米处的近地轨道,并从2020年开始工作。该卫星仍在工作。
2D轨道图
3D轨道图
轨道高度分析图
轨道倾角分析图
轨道综合分析图
查看轨道综合分析图